Theta_e
311 311 311 311 310 310 311 311 311 311 311 312 311 312 312 312 312 312 311 312 311 312 312 311 312 312 313 312 312 311 308 293 291 293 295 299 312 319 317 317 315 316 315 301 303 304 300 298 298 297 297 296 296 300 301 301 303 305 298 295 293 295 294 298 297 298 303 301 303 305 307 305 302 307 311 310 306 301 302 303 301 299 305 317 319 319 322 322
310 310 310 310 310 310 310 310 310 311 311 311 311 311 311 312 312 312 312 312 312 311 312 311 312 312 312 312 312 311 299 293 291 292 295 308 318 316 317 315 315 315 314 300 298 298 299 297 297 295 292 291 296 296 300 298 303 301 297 297 293 297 298 302 302 302 301 301 304 305 306 305 304 307 311 306 305 303 303 303 300 299 299 302 313 317 320 323
311 311 310 310 310 310 310 310 310 310 310 310 311 311 311 311 311 312 312 312 311 311 312 311 311 312 312 312 311 310 296 290 291 290 293 316 317 315 316 315 315 313 301 300 299 298 298 298 298 295 291 291 292 294 296 296 302 299 299 295 297 300 300 301 303 303 304 305 303 302 303 305 306 307 311 305 304 305 302 302 302 300 298 300 303 307 314 320
310 310 310 309 309 310 310 310 310 310 310 310 310 311 310 310 311 311 311 311 312 312 312 311 310 311 312 311 311 300 292 290 288 291 298 316 315 315 315 314 314 306 300 299 299 297 296 296 294 293 290 287 289 293 294 296 299 298 298 296 298 300 300 302 302 302 304 304 303 303 302 302 304 306 306 306 303 303 304 306 304 302 299 301 304 304 309 316
310 310 309 309 310 310 310 310 309 309 310 310 310 310 310 310 310 310 311 311 312 312 312 312 309 310 312 311 308 294 288 284 286 296 302 317 315 313 313 313 314 297 298 298 298 297 295 293 293 290 288 285 289 290 290 293 296 293 296 295 295 296 298 302 301 303 303 303 302 301 298 299 306 305 302 303 300 301 305 306 304 305 303 304 306 310 312 315
310 309 308 309 309 309 309 309 309 309 309 309 310 310 310 310 310 310 310 311 312 311 311 312 309 310 311 309 292 292 284 277 287 296 315 313 313 312 312 311 311 297 296 294 294 295 296 293 291 288 285 286 287 286 286 292 295 288 290 291 293 296 296 298 299 299 299 299 299 299 301 304 302 301 303 303 302 305 309 307 304 305 305 306 307 311 315 315
309 309 308 308 308 308 308 308 308 309 309 309 309 309 309 310 310 310 310 310 311 311 312 310 308 310 309 308 291 287 283 283 291 298 313 311 311 310 310 309 310 294 293 293 292 295 291 290 289 286 285 284 284 286 287 289 293 291 288 288 290 291 294 296 297 298 298 296 297 301 299 301 301 299 302 301 304 306 309 309 306 308 307 308 305 310 310 311
309 309 309 308 308 308 308 308 308 308 308 309 309 309 309 309 310 310 310 310 310 311 311 309 307 310 307 290 290 282 281 285 291 295 312 311 300 302 305 295 296 294 292 291 292 292 292 289 289 287 284 284 285 287 288 288 289 288 287 289 290 291 291 292 292 292 293 293 296 296 295 296 301 301 301 301 303 306 307 309 308 309 308 305 305 305 305 305
308 308 308 308 307 307 307 308 308 308 308 309 309 309 310 310 309 309 309 309 310 310 308 306 307 309 306 289 283 281 280 288 295 299 294 293 293 294 294 297 293 293 291 291 291 292 293 289 289 288 285 286 288 287 287 286 283 288 288 289 288 289 290 291 291 290 290 292 293 291 290 293 298 302 299 303 304 306 307 307 307 308 306 304 304 305 305 304
308 308 307 307 307 307 307 307 308 308 308 309 309 310 310 309 309 309 309 309 309 308 307 305 308 308 295 288 281 279 285 294 296 297 292 293 292 295 295 292 292 292 293 291 292 292 292 289 291 292 290 287 289 287 286 286 283 289 287 288 289 290 290 290 289 289 290 290 290 289 289 290 294 298 292 301 305 306 306 306 306 306 305 305 305 305 304 304
308 308 307 307 307 307 307 307 307 308 307 308 309 309 309 308 308 309 309 309 309 306 306 305 307 304 291 287 281 277 289 295 295 293 293 293 293 293 294 294 293 291 292 291 292 293 293 292 292 291 291 287 288 285 287 287 289 288 287 287 286 287 287 288 288 288 289 290 290 289 288 290 291 294 291 300 303 306 305 305 305 304 304 305 306 306 306 305
308 307 306 307 306 306 306 307 307 307 308 308 309 308 308 308 308 308 308 308 306 306 304 304 308 293 287 288 280 281 292 294 293 292 293 293 293 294 293 294 294 293 292 291 293 292 293 293 292 291 284 290 284 287 286 288 288 287 286 285 285 285 287 287 286 288 289 288 290 289 287 286 288 287 291 297 301 304 304 305 305 305 305 305 305 306 307 306
307 306 306 306 306 306 306 307 307 307 308 308 308 307 307 308 308 308 307 304 301 301 304 306 304 294 290 282 285 289 292 295 293 293 293 293 292 292 293 292 292 292 293 291 292 294 292 291 293 290 289 287 286 283 286 288 286 287 285 283 283 283 283 287 288 287 287 288 289 289 280 283 287 289 293 296 300 303 303 303 304 305 305 305 305 306 307 308
306 307 306 306 306 306 306 306 307 307 307 307 306 306 307 307 307 307 303 303 305 303 303 309 295 289 285 281 290 296 297 295 293 293 291 294 293 293 294 294 293 291 292 292 291 291 292 290 292 290 290 289 286 290 288 284 284 283 283 283 280 280 278 284 286 285 285 288 289 289 280 283 287 288 293 296 299 299 300 302 303 304 304 305 306 306 306 308
306 306 306 305 305 305 305 306 306 307 307 306 306 306 307 306 306 305 303 302 303 305 304 305 292 289 283 286 292 297 309 295 293 292 291 293 292 292 293 293 293 292 291 293 292 291 289 291 291 287 285 288 288 285 282 279 278 279 279 276 278 279 280 283 286 285 284 286 289 287 280 283 285 288 289 294 297 297 297 298 300 301 301 303 305 306 306 307
306 305 305 305 304 304 305 305 306 306 305 305 305 306 305 306 304 303 303 302 302 302 297 293 293 287 281 282 292 303 293 291 292 293 291 293 291 291 291 291 292 293 292 293 292 291 290 289 285 284 285 284 280 278 279 279 278 277 277 277 276 277 279 280 284 285 287 286 286 287 281 281 281 284 287 289 292 295 296 296 297 298 299 300 302 304 306 307
305 305 305 304 305 305 305 305 305 305 304 304 305 304 305 304 303 307 303 301 295 295 292 289 290 291 282 289 293 290 288 289 291 291 290 292 292 291 290 289 289 290 290 291 292 290 287 286 285 282 279 280 279 276 274 273 274 276 278 276 277 277 278 277 280 283 284 286 282 285 283 283 282 284 285 287 288 289 290 292 294 295 297 298 299 301 302 304
305 305 304 304 304 304 304 304 304 304 303 304 304 303 301 302 301 303 300 295 290 291 292 292 290 284 280 288 284 287 287 286 289 290 289 290 290 290 290 289 287 287 286 286 289 285 286 282 280 277 279 280 280 278 273 270 273 272 275 275 276 277 278 278 277 281 282 284 282 283 282 283 285 286 287 288 287 287 287 290 291 292 292 293 295 297 298 300
305 304 304 304 304 304 304 304 304 303 303 303 302 302 303 300 288 286 287 289 282 279 279 286 283 279 277 282 283 284 285 290 289 289 291 290 292 291 290 289 288 288 282 281 283 284 282 280 280 278 275 277 278 279 276 276 274 274 275 275 275 275 275 276 280 283 283 281 280 280 280 283 284 285 287 288 288 286 287 287 288 290 290 290 289 291 294 296
304 304 303 303 304 305 304 304 304 302 303 298 293 288 289 286 282 278 286 285 279 280 281 280 281 280 280 280 281 285 287 288 286 286 288 290 294 290 288 287 285 283 281 279 281 282 281 277 276 275 276 278 279 280 280 278 276 276 276 275 275 275 277 278 278 280 282 281 281 281 281 281 282 283 284 286 286 286 287 287 287 287 288 289 290 290 290 291
304 303 303 304 304 304 304 303 303 302 302 293 292 288 282 283 278 277 282 283 285 283 283 284 283 282 282 281 281 282 283 282 283 284 288 297 290 289 284 285 282 280 280 279 280 283 282 277 277 278 279 279 279 279 279 279 277 277 275 274 274 274 274 277 277 279 280 281 277 279 278 280 282 282 283 285 285 284 286 286 286 287 287 288 288 289 289 291
303 303 303 303 303 303 303 303 302 301 299 291 292 288 288 289 289 289 285 279 285 284 282 283 282 281 282 282 284 284 283 279 280 283 286 290 288 283 281 282 278 279 279 280 281 279 278 276 279 279 280 278 278 279 278 278 278 276 275 274 274 275 275 277 278 280 281 279 277 279 278 279 281 282 282 283 284 286 286 286 287 287 287 287 287 287 288 288
302 302 302 302 302 303 303 302 300 299 289 289 289 290 289 291 291 290 289 284 280 285 283 279 279 279 280 281 282 285 279 278 277 280 285 289 284 283 281 280 279 278 279 280 276 271 273 276 280 281 279 279 278 278 278 278 278 276 275 273 273 275 273 270 272 278 279 280 275 276 276 278 280 279 280 283 284 285 286 286 287 287 287 287 287 288 288 287
301 302 302 302 303 303 302 301 298 293 289 285 288 289 292 291 289 290 286 279 278 280 278 279 279 278 278 282 284 282 279 278 279 279 288 287 284 281 282 279 277 278 278 280 279 276 276 278 279 279 279 279 278 277 276 276 275 277 276 275 275 275 274 275 273 277 277 277 276 278 275 277 279 278 279 282 284 284 285 285 285 286 286 288 288 287 287 288
302 303 303 301 301 303 301 301 289 288 287 284 286 290 290 290 290 291 284 277 275 277 281 281 281 280 283 287 285 282 279 280 280 282 288 288 283 281 280 280 278 276 277 279 279 278 277 279 278 278 277 278 278 276 277 277 274 275 277 277 277 277 273 275 275 275 273 273 277 277 269 268 273 272 277 281 281 282 284 284 285 286 287 286 286 287 288 288
302 302 301 301 302 302 300 288 283 289 285 285 288 289 290 288 289 289 281 264 263 272 279 278 285 283 287 282 284 280 282 279 282 282 289 288 291 282 282 279 280 276 277 278 278 279 279 279 281 278 278 277 277 277 278 278 275 273 275 279 279 278 276 275 274 274 267 269 276 278 271 268 270 269 272 275 275 279 283 281 284 286 287 286 286 287 288 288
301 301 301 302 302 301 288 280 287 287 281 283 287 290 289 287 287 287 276 261 257 274 277 281 282 281 286 283 282 281 271 273 283 286 287 293 288 289 279 278 279 279 279 276 273 274 277 278 278 278 278 277 276 276 279 279 276 273 276 278 278 278 276 275 275 276 271 275 275 276 276 267 271 273 274 273 273 276 278 280 282 283 284 285 286 286 287 287
301 301 301 302 302 299 286 288 286 284 283 287 290 289 288 286 284 281 267 257 260 276 278 278 282 285 284 282 282 278 278 277 278 283 285 286 288 284 281 276 278 277 278 276 270 273 278 275 277 276 277 276 275 279 279 280 277 275 276 278 278 278 277 277 275 274 275 273 269 272 272 270 269 270 271 272 275 274 277 279 281 283 284 284 285 286 286 287
301 301 301 301 301 298 289 287 285 284 286 288 289 289 290 286 282 268 257 258 267 266 289 280 289 284 281 283 280 278 278 280 277 281 282 286 288 284 278 279 278 278 277 278 276 275 275 277 279 279 277 275 278 278 280 281 277 278 276 277 275 275 276 274 273 272 271 270 267 274 274 269 270 274 270 274 272 275 277 280 281 282 283 284 285 285 286 285
300 301 301 301 297 290 285 286 285 288 290 289 289 289 286 281 273 265 260 255 269 267 279 280 280 276 279 278 276 278 278 278 277 277 282 282 282 285 283 282 279 277 278 279 277 279 271 281 282 278 277 279 279 278 280 281 281 278 277 275 271 270 267 263 264 268 266 267 269 275 273 273 266 272 272 274 273 277 279 278 279 280 280 281 283 285 285 285
300 300 300 300 289 289 287 283 284 284 287 288 288 284 280 272 258 254 254 263 269 270 277 277 273 278 274 272 272 274 274 274 274 279 276 282 279 282 280 278 277 267 269 272 276 279 277 279 277 277 282 280 280 278 278 280 280 278 271 267 270 268 265 259 258 266 267 265 272 275 273 273 267 266 269 278 276 278 280 279 280 281 281 282 281 282 283 285
299 299 299 295 293 292 283 282 287 287 288 288 285 278 272 265 262 260 262 275 266 268 269 268 272 271 272 272 270 268 271 270 269 274 274 274 273 275 279 274 272 261 263 270 270 274 274 276 280 278 281 281 276 276 275 274 277 277 271 271 271 260 259 262 264 265 266 266 273 274 270 266 270 275 278 275 277 277 277 281 281 281 281 279 279 280 282 283
300 299 298 294 293 285 287 289 289 288 287 288 280 273 259 256 258 259 262 262 263 267 267 272 269 270 269 268 266 265 269 269 275 273 275 272 272 275 278 278 269 272 269 266 262 266 267 272 276 279 280 280 279 275 271 268 274 273 273 273 270 264 264 261 264 258 263 268 270 266 270 269 272 276 280 278 279 280 279 278 279 280 279 278 279 280 281 284
298 296 289 291 290 290 291 291 290 287 287 285 273 267 265 257 262 272 261 262 266 269 271 270 272 268 268 269 265 269 271 269 271 272 276 270 270 270 271 276 276 274 269 261 267 266 267 268 269 273 269 278 279 280 278 274 274 274 275 275 272 270 261 261 261 262 264 266 263 265 266 259 269 270 278 281 283 283 281 280 279 278 278 279 279 280 280 282
297 292 287 287 286 286 287 287 286 288 285 279 269 260 257 259 257 256 259 256 265 270 271 270 270 268 270 266 263 266 272 265 269 269 273 270 267 267 267 269 275 277 267 270 272 263 269 270 272 277 278 279 278 281 282 275 273 272 276 274 268 270 269 267 264 260 260 259 257 261 264 267 271 275 277 274 276 279 283 283 280 280 279 279 279 281 282 282
292 286 287 284 285 286 285 288 286 287 283 274 266 261 262 261 260 259 265 271 272 270 271 273 268 264 264 263 263 264 267 270 267 266 263 268 270 269 270 270 270 276 271 272 270 266 263 267 271 271 275 277 279 281 279 281 268 273 274 267 273 277 273 264 262 258 258 257 257 263 265 270 273 276 277 275 276 276 277 280 279 279 278 278 279 280 280 282
285 285 281 282 284 285 286 288 291 287 284 273 263 261 262 261 267 266 279 275 274 272 269 266 263 255 255 256 256 264 268 270 267 268 265 268 267 271 268 271 274 272 276 276 272 275 267 269 268 271 272 275 276 278 278 279 279 271 266 273 273 270 267 266 262 258 252 261 260 269 265 267 271 265 278 275 274 276 276 278 279 278 278 279 279 280 281 281
284 281 285 282 285 286 286 287 289 286 281 275 268 274 266 265 274 274 277 276 275 275 268 268 267 271 263 267 267 269 268 270 270 270 267 269 264 272 268 271 273 272 274 275 270 269 271 265 271 271 275 275 274 278 276 279 278 276 274 273 272 262 267 264 265 263 260 260 256 265 269 269 271 270 273 273 275 276 276 276 276 277 278 279 279 279 280 281
281 278 275 282 284 285 286 289 289 285 279 273 271 269 272 269 277 277 279 279 278 275 272 273 270 273 273 269 270 269 269 267 273 269 268 271 269 275 272 276 273 278 276 276 273 275 273 265 268 270 272 272 269 271 268 271 277 273 277 274 272 270 263 267 269 270 270 263 264 262 266 263 272 273 276 274 275 276 275 276 276 277 279 279 279 279 280 280
280 275 274 282 285 287 287 287 280 278 275 269 270 270 274 268 275 278 278 277 274 275 273 272 273 270 272 271 272 268 271 271 270 269 270 270 271 277 271 275 272 273 275 276 273 276 270 275 262 271 270 273 267 271 269 272 267 268 270 262 269 266 269 267 265 269 267 263 265 261 263 260 273 275 276 276 276 276 276 277 278 278 278 279 279 280 280 280
283 276 275 285 286 286 287 281 270 269 268 272 274 271 274 270 276 278 278 277 275 278 274 272 271 268 269 268 269 272 268 271 270 267 267 269 272 265 274 270 274 271 275 274 274 275 270 269 266 270 269 269 270 275 271 273 273 272 272 270 271 270 268 265 263 271 260 264 259 264 261 265 269 274 275 276 277 275 277 278 279 279 278 279 279 280 280 280
278 271 274 285 284 285 281 272 273 269 268 269 266 270 269 279 273 273 275 276 274 272 276 272 273 272 271 270 270 269 270 268 270 269 270 267 270 269 272 273 273 272 272 270 271 275 274 269 266 264 268 269 272 275 273 273 271 271 271 270 271 271 271 268 262 267 263 264 266 263 263 265 273 270 272 273 272 273 274 276 277 277 277 277 278 279 280 280
277 274 282 284 285 283 277 272 275 274 272 273 276 275 277 275 274 275 274 277 270 275 271 272 272 269 270 270 269 270 271 267 269 266 269 269 270 272 271 272 272 271 274 271 274 273 277 264 264 266 271 271 273 274 273 270 270 269 270 270 270 269 271 269 269 271 267 265 264 264 264 266 273 273 273 272 272 272 274 276 275 273 277 277 278 279 279 278
277 275 276 284 285 284 275 266 266 268 270 272 275 274 278 275 274 273 273 273 271 270 270 269 270 272 268 272 271 268 271 261 268 268 265 269 267 273 271 271 272 269 271 268 267 271 265 267 264 260 261 263 264 267 265 265 264 260 262 266 266 267 267 267 269 257 260 263 268 266 261 264 273 274 273 274 274 274 275 275 276 275 276 277 278 278 278 277
274 276 277 280 286 281 269 269 267 267 271 270 271 270 270 271 273 272 273 270 271 271 270 269 271 271 270 272 267 269 269 267 263 269 269 269 268 273 271 271 272 271 272 274 275 275 267 265 264 259 256 255 255 256 257 259 261 265 265 267 266 266 266 267 263 262 260 266 268 265 260 268 272 272 273 273 273 273 274 274 275 276 276 276 277 277 277 277
271 266 273 268 276 278 277 278 274 272 269 270 266 269 268 261 268 270 270 267 270 268 271 269 268 269 266 265 262 261 263 266 266 263 266 265 268 268 268 270 272 271 274 276 275 273 265 268 266 264 262 260 263 265 268 271 268 264 267 268 268 267 268 269 268 264 263 266 265 267 268 269 271 272 272 272 272 272 273 274 274 274 275 276 277 277 276 277
274 271 269 265 267 272 271 273 270 271 266 270 264 267 262 267 267 266 272 259 267 268 266 268 264 265 260 262 259 260 261 261 264 262 260 263 264 266 265 265 266 271 275 273 274 271 266 263 265 265 265 265 267 266 268 269 266 268 267 267 269 269 269 267 266 263 270 266 262 267 264 268 271 272 271 271 272 272 272 273 273 273 274 275 276 276 278 275
270 274 274 274 266 265 268 270 270 269 271 270 267 270 267 267 266 262 265 268 265 264 261 257 262 261 261 262 260 257 259 260 258 259 261 257 257 257 263 261 260 270 272 268 272 268 264 261 264 265 264 266 267 267 267 267 267 267 267 267 266 268 268 266 266 269 269 265 264 270 266 264 269 272 271 271 272 272 272 273 273 273 274 275 274 275 275 275
275 273 274 270 269 273 272 272 272 271 270 271 269 270 266 267 266 268 265 264 267 264 267 260 263 264 264 262 260 260 263 259 260 264 262 260 261 262 261 262 265 267 266 265 266 268 263 259 264 264 263 264 265 266 267 265 266 267 267 266 266 266 266 268 267 269 268 267 269 269 269 269 273 272 271 270 272 273 273 273 274 274 273 274 274 274 274 275
272 271 270 272 273 271 272 272 271 270 266 270 266 268 267 267 266 268 267 266 259 265 267 261 263 263 263 263 263 262 263 264 264 261 266 264 263 263 260 263 262 264 263 262 263 264 262 259 266 265 262 262 264 266 266 266 266 264 266 267 267 265 264 267 268 268 269 268 268 269 269 269 273 275 274 273 273 274 275 274 274 274 275 275 274 274 275 276
274 274 273 271 269 272 272 271 269 270 268 269 268 269 268 266 264 268 266 269 265 263 264 264 266 264 263 262 264 263 266 266 266 266 266 265 261 265 261 259 265 262 264 263 262 260 262 258 262 261 259 258 262 263 264 265 265 264 263 265 266 266 263 265 265 267 267 265 268 269 267 268 272 274 274 273 273 273 273 274 274 275 275 275 275 275 275 275
275 274 272 271 268 274 269 272 271 269 265 270 269 267 267 264 266 265 263 269 269 269 268 267 262 262 263 264 263 264 266 267 267 267 267 267 267 266 267 266 267 265 263 263 262 262 258 256 258 259 256 257 261 262 261 263 263 260 260 264 266 268 269 268 266 268 268 270 267 265 266 272 273 274 272 272 270 269 268 269 271 273 274 274 273 273 273 274
Wind_Speed
20 21 22 22 23 23 23 24 24 24 24 24 24 24 24 24 24 23 23 22 21 19 18 18 17 17 16 15 15 13 11 3 4 2 1 4 3 4 4 7 8 10 8 3 4 2 2 4 3 6 2 3 2 1 1 1 0 2 5 4 8 7 9 6 11 8 2 2 3 6 6 4 4 5 2 5 6 4 3 1 3 1 1 3 2 2 4 1
21 21 21 22 22 23 23 24 24 24 25 24 24 25 25 25 24 24 23 22 20 18 17 16 17 17 16 15 14 13 6 2 1 0 4 1 2 2 4 6 8 10 7 5 5 2 1 2 2 4 2 2 2 1 1 1 0 5 2 5 11 7 4 4 3 5 1 2 4 4 5 7 7 3 1 2 10 4 5 4 2 3 2 2 2 5 5 3
20 21 21 22 22 23 23 24 24 24 25 26 25 25 25 25 25 24 23 22 21 18 16 15 15 16 16 15 14 11 4 2 0 1 2 2 1 2 3 6 8 9 3 0 0 1 1 1 1 1 3 2 5 1 1 1 2 3 4 6 9 1 2 2 4 6 5 3 4 5 4 8 3 3 2 4 9 12 12 9 4 4 5 4 4 4 4 2
20 20 21 22 23 23 23 23 24 24 24 25 24 24 24 25 25 24 24 22 21 19 16 14 14 15 15 15 11 4 1 0 1 1 2 5 3 2 3 4 8 5 3 3 1 1 2 4 3 3 1 4 2 2 1 3 3 1 2 5 2 2 4 3 2 2 2 5 4 4 2 4 5 6 4 1 2 14 17 10 8 6 5 4 3 3 1 2
20 20 20 21 21 21 22 23 23 25 24 24 24 23 23 24 24 25 25 24 22 18 16 13 13 15 15 12 9 3 1 1 1 1 4 5 3 4 4 6 7 4 4 3 3 4 5 3 1 3 2 0 2 1 2 1 0 2 5 1 1 3 2 1 1 2 1 1 5 2 6 7 2 1 5 6 10 11 9 8 5 8 7 4 2 2 1 2
21 21 21 21 21 21 21 22 22 23 24 24 25 25 25 24 23 23 24 23 22 19 16 12 11 14 13 9 5 1 1 2 0 0 4 2 2 6 7 9 7 3 2 5 2 1 2 3 3 1 1 1 2 3 1 0 1 4 1 3 3 2 2 2 5 3 6 3 1 1 3 2 6 3 7 11 14 8 6 4 5 7 6 4 3 1 1 0
22 22 22 22 22 23 23 24 23 22 23 23 23 24 24 24 23 23 23 21 21 19 16 10 10 13 11 7 2 7 3 2 1 3 5 1 7 8 8 8 6 4 5 3 4 1 2 2 2 0 2 1 1 2 4 2 1 1 5 2 5 2 4 4 7 7 5 4 3 1 4 3 3 9 3 9 11 12 11 4 4 2 0 1 3 3 2 2
21 21 22 22 22 22 23 24 24 24 24 25 25 24 24 22 23 22 23 22 18 16 14 8 9 10 9 3 2 3 2 1 2 4 6 6 8 6 5 4 5 3 6 4 1 2 2 3 2 2 1 2 1 3 1 0 0 2 4 2 4 4 3 4 4 6 5 5 4 4 5 6 4 5 0 11 11 11 12 5 3 3 2 3 3 2 2 2
21 22 22 23 23 24 24 24 25 26 26 27 25 25 24 24 22 21 21 19 16 14 8 5 9 7 7 3 2 2 2 1 3 3 6 6 5 7 6 1 5 4 3 2 3 2 3 2 0 2 2 0 1 0 2 0 5 2 4 1 4 5 7 7 8 6 6 5 3 6 10 5 6 6 13 14 7 9 7 4 6 4 4 5 5 5 4 4
21 22 22 23 24 24 25 25 25 26 27 27 26 25 25 24 24 23 20 15 12 9 5 4 8 6 4 3 2 2 1 3 3 3 5 6 5 7 8 2 2 3 1 2 3 4 1 2 2 3 2 0 1 2 1 2 3 1 4 3 4 7 6 4 5 4 3 3 3 4 8 7 3 4 12 4 13 4 6 8 5 8 8 7 6 5 4 4
21 22 23 23 24 25 26 26 26 27 28 27 26 26 26 25 25 22 18 12 7 6 1 3 5 6 2 1 2 2 3 2 3 2 4 5 8 7 2 4 1 3 5 3 4 0 1 2 1 2 0 2 1 2 1 2 2 5 3 6 4 5 6 6 5 5 2 5 3 7 9 9 10 5 17 1 3 8 9 9 8 9 11 10 10 9 5 5
20 21 23 23 25 26 26 27 27 28 27 27 26 26 26 26 24 20 13 8 4 1 1 1 4 4 2 1 3 3 3 1 2 1 4 4 3 2 3 1 2 3 1 1 1 0 0 1 1 1 1 0 1 0 0 2 1 2 3 7 5 5 9 3 5 4 5 4 0 2 4 10 8 16 9 6 3 5 9 12 13 12 12 12 12 12 11 9
21 22 23 23 25 26 27 28 28 29 27 27 27 27 26 25 21 14 8 5 2 2 2 3 5 2 1 2 5 7 2 1 1 4 3 4 4 3 4 3 5 3 2 4 1 0 1 1 1 1 0 1 1 0 1 3 3 2 0 1 8 5 9 7 6 4 7 3 5 5 8 12 18 16 5 9 6 9 8 12 12 11 11 10 9 9 11 11
21 21 23 24 25 26 27 28 29 28 28 27 29 28 27 23 15 8 4 5 5 3 4 9 6 2 2 3 3 1 3 0 2 4 3 2 2 2 2 4 5 3 2 4 1 1 1 1 4 2 1 0 2 2 4 4 4 1 4 1 4 6 7 4 2 3 4 5 8 6 9 14 12 2 5 7 12 12 11 13 13 11 8 9 9 10 11 12
20 21 23 23 25 26 27 28 29 28 27 28 30 30 26 20 9 4 5 6 9 8 6 6 3 3 1 4 4 6 3 2 3 1 2 1 1 1 2 4 5 5 2 4 1 1 2 2 2 1 1 0 1 2 5 3 3 1 3 5 1 6 5 2 1 6 7 2 8 7 10 17 10 5 3 5 7 8 14 14 13 12 8 8 10 10 11 12
21 22 22 23 25 26 27 27 27 28 27 29 30 28 23 14 7 1 3 10 9 8 2 4 1 3 1 3 1 4 3 1 1 2 1 2 2 1 0 4 1 5 3 3 1 1 4 3 3 2 0 2 5 2 2 5 3 2 5 6 6 5 5 7 4 5 7 3 2 13 9 2 1 3 3 4 3 4 10 11 11 11 10 8 9 9 9 10
21 22 22 24 24 25 27 27 27 27 27 28 31 24 18 10 7 0 5 9 5 2 1 2 1 1 1 1 3 1 0 1 3 2 4 2 1 3 3 3 2 2 3 2 5 3 4 2 1 1 3 2 3 3 2 6 7 4 4 6 2 5 3 6 4 1 3 5 4 8 10 10 2 2 3 3 5 3 6 7 8 9 9 8 8 9 10 10
21 21 22 23 24 25 26 27 27 25 26 27 26 20 10 8 8 2 6 6 3 3 3 3 2 1 2 2 1 0 0 4 4 3 1 1 4 4 3 1 1 4 3 2 3 1 2 1 3 5 2 1 3 4 6 11 7 5 3 6 9 5 7 11 3 1 2 1 8 6 13 18 9 8 7 6 0 2 5 7 8 9 8 5 5 6 7 7
20 21 22 23 23 25 25 26 24 25 26 25 22 13 8 4 4 4 6 8 2 2 2 0 1 2 4 3 6 5 2 2 2 0 0 1 2 3 4 3 4 2 1 2 2 1 2 2 4 1 3 4 8 12 12 12 3 2 6 6 4 4 7 7 8 4 1 2 5 7 13 16 8 10 10 11 7 7 11 6 5 7 9 8 6 6 7 7
21 21 22 23 23 23 25 26 21 22 25 16 14 5 6 10 9 4 9 5 2 1 6 4 2 3 6 6 3 2 1 3 0 2 1 2 2 2 3 2 3 4 3 2 1 1 1 3 6 8 9 12 11 10 14 0 2 1 1 4 6 8 11 1 2 1 2 3 11 13 11 15 10 9 6 11 6 7 11 12 10 7 7 8 8 8 9 9
21 21 21 22 22 24 25 25 17 21 19 10 10 8 7 4 5 6 9 16 10 7 8 10 6 6 6 1 2 3 0 2 1 1 1 2 2 5 2 2 1 0 1 3 3 1 3 3 11 10 11 9 8 7 5 8 4 5 6 5 10 5 12 1 2 2 4 1 5 2 4 14 13 5 5 9 9 13 14 12 11 10 9 8 9 10 9 10
20 21 21 22 23 24 24 21 15 19 13 5 11 9 2 2 0 2 1 9 20 3 4 8 2 4 4 4 3 3 3 2 3 4 2 2 2 5 2 4 3 6 1 2 0 1 2 10 10 6 5 3 5 5 5 8 11 4 6 5 8 13 4 6 5 3 3 3 11 7 10 17 15 8 5 8 11 11 8 9 12 11 12 11 8 7 7 5
20 20 21 21 23 24 23 18 12 14 5 7 9 6 3 2 1 1 2 8 12 3 1 2 2 5 4 1 1 6 2 5 3 1 5 4 2 4 4 4 3 3 2 5 8 2 5 8 15 8 6 6 5 5 7 5 5 7 7 6 14 10 3 8 3 0 3 5 3 1 5 13 9 5 8 11 11 12 8 9 12 10 13 13 11 9 7 6
19 20 20 21 22 24 23 14 8 9 8 1 5 5 1 1 1 1 2 5 7 7 2 3 3 2 5 1 3 5 6 2 2 3 2 5 7 2 4 4 3 3 9 10 11 11 13 2 2 5 7 8 8 5 5 7 10 9 9 10 12 12 9 10 4 2 1 4 5 8 8 13 11 9 6 9 11 10 11 9 10 8 9 9 6 5 5 7
19 19 20 22 23 22 23 9 6 6 5 1 1 1 2 1 2 3 0 4 3 7 2 0 3 3 2 2 2 2 3 0 6 1 1 5 4 3 3 1 3 8 7 5 5 8 17 8 2 5 3 5 5 5 11 10 9 6 8 16 18 14 7 8 2 3 5 7 5 4 6 8 7 4 9 9 5 8 10 11 13 14 11 8 10 12 8 6
18 19 20 21 22 21 17 3 3 7 4 0 0 2 2 2 1 2 2 3 3 3 1 2 2 2 1 2 1 2 1 1 0 3 2 5 2 2 2 1 3 6 4 6 7 5 8 2 8 7 4 6 7 9 6 10 9 2 9 13 16 13 10 7 3 2 3 9 5 3 9 11 3 2 4 6 4 11 7 4 12 11 10 9 11 10 9 8
19 20 20 21 21 16 5 2 1 5 4 3 2 3 3 2 1 2 1 5 2 1 1 1 1 0 3 1 2 0 2 0 1 1 0 1 5 0 2 6 1 0 2 2 3 8 4 4 5 5 8 8 8 10 9 15 8 7 4 6 8 14 13 13 10 10 8 1 2 2 4 5 13 9 7 3 4 8 10 10 13 10 9 9 9 9 8 8
20 20 20 20 19 10 0 2 6 5 3 5 4 4 3 1 3 2 3 4 2 1 0 1 0 1 1 2 4 0 1 2 2 1 0 3 1 3 3 4 6 4 3 4 10 1 7 3 7 6 7 8 10 18 4 14 9 6 1 5 9 11 12 11 7 8 8 5 8 3 3 5 9 6 2 3 8 7 13 13 13 13 11 10 10 9 10 9
19 20 21 20 17 8 3 2 3 4 4 4 5 5 5 2 2 4 3 1 4 2 2 2 3 1 2 1 1 1 2 1 2 1 3 1 1 1 2 3 3 1 4 8 13 4 1 3 9 11 9 12 10 3 11 15 10 4 5 7 5 4 1 2 6 7 4 4 11 9 6 8 14 10 3 1 4 9 11 14 14 11 8 10 11 11 8 5
20 20 20 20 12 2 1 1 3 4 5 5 7 6 3 3 2 2 4 5 3 2 3 1 2 3 2 1 2 3 1 2 1 2 1 2 3 1 0 2 1 1 5 5 9 12 3 2 5 3 9 4 1 5 9 13 9 4 3 2 4 6 3 3 2 2 1 8 13 13 12 12 11 8 8 7 9 11 10 6 7 8 7 9 10 10 7 6
20 20 19 18 6 4 4 5 4 2 4 5 5 3 2 6 3 4 1 5 2 3 1 4 1 4 4 3 4 2 0 1 2 2 2 1 2 2 1 3 5 3 2 4 12 14 5 5 3 4 4 3 1 1 0 6 5 5 2 3 1 2 5 3 2 1 7 12 11 18 14 14 15 3 4 9 4 9 10 12 13 12 11 10 7 6 6 7
22 21 19 10 8 4 3 8 6 3 4 3 2 3 3 1 4 3 5 5 2 2 2 1 2 1 4 1 3 2 2 5 1 2 5 4 5 5 7 10 3 1 4 7 11 4 11 14 10 6 4 10 3 2 4 1 3 6 3 3 7 5 3 5 2 7 13 14 14 11 5 3 17 16 13 6 9 7 8 9 11 12 10 6 6 5 4 4
21 19 19 9 8 3 4 5 5 4 3 3 3 4 1 5 3 4 2 2 3 2 2 5 1 6 2 5 4 2 1 2 1 3 3 3 4 7 6 8 4 5 14 1 3 1 7 4 8 14 7 4 5 8 3 3 7 6 7 7 7 6 7 10 7 2 5 7 9 9 7 12 2 9 21 16 15 12 9 9 8 8 7 7 6 5 5 6
17 17 8 8 6 5 6 5 5 2 1 2 1 4 6 2 6 5 5 3 5 3 1 2 8 5 4 2 3 1 7 4 5 2 4 2 2 5 4 7 6 5 3 2 9 4 17 12 8 5 3 7 12 14 17 9 8 12 6 13 13 11 5 9 7 14 15 12 2 0 5 8 9 9 11 17 17 15 11 10 10 6 6 5 3 3 4 6
16 10 6 8 4 2 1 3 3 1 2 3 7 5 1 7 3 3 3 3 2 2 2 4 6 6 11 3 2 2 5 4 2 1 0 2 4 1 3 4 5 7 1 9 5 2 13 16 8 12 6 9 12 15 13 3 1 4 7 6 7 15 6 17 5 4 5 4 2 2 7 5 6 4 2 3 3 7 14 16 7 10 3 1 2 4 5 6
9 6 6 4 3 3 2 2 1 2 3 5 6 1 5 6 3 2 1 4 1 2 6 7 4 1 6 5 1 3 7 5 4 4 3 3 4 7 2 2 1 7 6 10 3 9 2 12 0 4 3 9 16 11 7 10 8 5 7 7 13 3 7 5 4 1 1 1 9 4 5 6 5 8 10 4 2 4 5 13 6 8 3 3 4 4 3 4
6 6 6 3 4 3 4 1 1 2 5 5 5 4 6 4 5 2 2 1 1 2 4 7 6 6 2 4 1 3 4 3 5 1 5 0 7 9 3 5 3 3 7 6 9 8 13 16 1 3 6 5 4 1 3 7 6 3 6 9 2 3 4 4 6 2 2 12 9 8 13 5 9 11 7 6 4 7 7 11 11 3 2 5 6 5 6 6
5 4 5 2 4 4 4 1 2 4 4 3 2 7 2 0 1 2 0 2 1 4 1 1 5 1 5 4 6 1 3 4 6 5 5 3 8 2 2 0 5 4 5 5 2 4 4 11 8 10 14 8 3 4 7 8 5 10 8 2 7 4 9 3 2 12 9 9 5 8 15 12 11 10 3 6 9 11 10 4 2 5 7 9 6 5 5 6
3 2 5 1 3 2 1 2 3 3 3 2 4 4 1 2 1 0 3 1 2 2 5 8 3 3 4 7 6 5 2 2 5 4 8 5 7 2 4 3 4 8 8 10 8 6 2 6 3 3 1 2 4 2 12 7 3 2 1 3 2 2 4 7 11 8 7 14 7 12 7 12 7 9 11 10 11 9 5 7 7 10 13 9 8 9 10 10
4 3 3 2 1 4 3 5 5 4 2 5 4 4 2 1 2 1 4 6 3 3 5 3 6 9 6 9 7 8 6 13 10 8 8 3 12 9 9 8 3 13 8 7 4 8 6 6 13 2 2 4 4 2 9 8 6 3 3 4 3 2 1 2 4 8 9 9 12 9 12 2 6 7 11 14 11 9 8 9 10 11 10 9 9 11 10 10
2 1 5 1 1 2 6 7 3 0 2 3 2 5 6 5 2 2 1 4 3 4 6 7 7 7 6 10 11 4 2 4 4 7 4 4 5 5 3 5 7 5 9 8 4 6 6 4 13 9 7 9 9 3 3 5 5 5 9 13 11 9 10 12 14 2 1 8 5 10 14 3 3 2 6 7 8 5 10 13 13 11 10 7 8 10 11 10
1 4 3 2 1 4 6 3 2 3 2 5 4 1 2 7 3 5 4 5 4 3 4 1 5 5 3 4 7 7 6 4 6 5 3 1 7 5 4 12 8 3 6 6 9 7 6 3 5 8 9 11 7 9 4 6 3 4 2 3 4 8 8 11 14 10 3 5 3 5 8 9 4 0 1 2 3 3 4 4 7 4 2 4 4 6 6 9
1 6 6 8 6 1 2 4 5 5 6 3 2 5 7 8 6 5 1 2 4 3 0 3 3 6 8 6 5 5 6 7 5 9 9 9 6 2 4 2 5 7 5 3 5 4 7 1 6 7 6 9 10 10 8 3 1 6 4 4 5 8 9 12 12 9 11 7 9 7 10 5 2 3 1 3 3 3 5 5 6 2 3 4 8 7 7 7
2 5 5 2 1 5 5 4 4 3 4 4 6 8 3 3 2 5 0 3 2 4 4 4 3 5 5 7 7 6 3 8 6 1 4 5 6 4 10 5 7 4 4 5 5 7 9 4 4 8 7 7 4 3 2 2 2 1 3 2 2 1 4 5 8 4 8 10 14 10 15 4 2 3 4 7 7 7 6 5 2 5 4 6 7 8 8 8
3 2 3 5 2 4 4 2 4 2 5 4 4 6 5 2 4 3 3 3 2 1 3 5 5 2 6 4 4 5 6 9 8 9 13 6 3 6 7 3 5 4 3 7 12 8 6 7 6 4 6 7 8 7 5 3 2 1 1 4 1 6 4 4 4 4 9 3 9 9 5 3 5 4 7 7 7 7 6 5 5 1 6 8 7 8 8 9
1 4 2 3 1 2 1 3 2 1 3 3 5 3 3 2 4 1 5 7 8 4 9 6 2 4 4 4 5 7 6 4 7 2 4 6 5 1 3 5 5 3 8 15 14 8 4 3 5 6 5 6 8 8 8 11 9 8 10 3 5 1 3 3 4 5 6 4 7 6 7 7 7 5 8 8 6 5 5 6 6 3 1 3 7 9 8 8
2 3 1 3 6 3 4 4 5 1 2 1 3 2 5 8 7 5 7 1 5 2 2 5 4 5 5 6 6 5 5 4 4 6 5 6 5 7 9 4 5 5 13 14 11 3 3 5 7 8 11 9 8 9 9 11 14 14 10 10 9 9 4 4 4 6 6 8 9 2 5 8 11 2 3 4 4 3 2 3 4 5 1 1 4 6 8 7
1 0 3 2 3 5 5 6 4 2 3 2 5 4 11 11 9 6 4 4 3 4 2 9 2 5 8 11 6 3 6 9 6 8 9 4 3 4 4 8 6 11 18 7 5 4 5 9 10 10 10 10 9 7 8 9 8 10 11 10 11 11 10 8 8 7 6 4 5 6 5 3 5 2 3 3 2 0 0 2 6 3 2 1 3 6 9 10
4 3 4 1 2 1 3 5 5 9 11 9 6 11 12 15 14 9 4 2 3 3 5 6 6 6 8 5 2 5 6 7 9 7 5 4 6 4 4 4 6 7 5 4 4 4 2 3 4 6 12 8 7 9 8 8 10 11 10 11 11 9 8 6 8 7 6 9 7 8 9 6 7 5 2 3 3 2 3 3 5 8 4 3 0 2 5 6
3 0 5 1 5 6 7 7 7 9 11 12 6 8 4 7 9 5 3 3 2 6 1 5 10 7 6 7 6 8 8 9 11 10 7 10 10 5 5 5 6 4 1 3 1 3 3 7 12 10 9 8 6 9 11 9 7 9 11 11 11 7 4 4 6 7 4 4 3 7 7 8 3 1 0 1 1 1 6 6 7 8 9 7 4 3 2 3
3 1 2 6 10 5 4 7 6 6 5 6 9 9 6 6 6 4 5 3 6 5 5 13 12 10 3 2 7 10 8 10 11 13 11 9 10 5 3 2 1 4 5 6 3 2 2 5 3 3 8 10 7 7 10 8 8 10 11 10 9 9 7 4 4 5 5 6 6 6 4 6 1 3 2 4 9 8 9 8 7 6 11 12 9 8 8 9
1 1 3 1 9 9 8 5 9 7 8 4 6 7 5 4 4 2 7 7 9 12 11 9 7 1 6 6 11 11 9 8 8 7 7 7 6 7 7 9 10 11 7 8 3 7 2 3 5 7 10 9 7 7 8 10 9 8 6 7 12 9 8 4 3 4 5 5 4 4 7 3 2 2 4 6 8 9 11 11 10 10 9 11 12 9 10 10
Wind_Direction
7 5 3 3 1 358 356 354 352 351 350 348 347 347 347 347 348 349 349 348 346 345 344 343 344 346 347 348 349 352 2 65 30 29 62 240 219 255 352 354 358 3 11 51 21 38 354 10 3 338 18 55 317 111 268 51 316 99 180 180 224 216 205 188 200 186 142 123 184 169 184 178 262 290 259 328 249 212 294 276 292 358 223 210 243 305 286 269
6 4 2 1 359 357 355 353 352 350 349 347 347 346 345 344 344 345 347 346 345 343 343 341 340 343 345 344 348 349 19 43 42 55 215 240 297 13 2 0 359 14 28 40 54 68 76 334 342 26 39 54 326 99 350 225 18 183 178 192 229 191 235 145 206 209 172 182 167 170 155 166 220 196 324 321 260 221 273 253 21 334 325 340 307 5 15 51
4 4 2 359 357 356 354 352 351 349 348 346 345 343 342 342 342 341 343 343 343 341 340 341 340 341 341 340 343 351 1 2 67 359 288 305 4 354 350 352 30 33 64 44 285 109 109 236 216 52 6 89 4 196 34 262 139 247 168 219 229 168 246 228 186 225 213 146 185 170 197 172 196 180 68 235 272 270 237 252 277 309 289 292 296 347 359 33
5 3 0 358 356 356 352 351 350 349 346 344 343 342 342 340 340 339 338 339 341 339 336 337 339 342 340 335 352 346 50 50 56 278 273 293 33 9 347 357 54 58 78 58 170 101 115 75 59 79 21 65 317 39 147 247 149 284 201 222 237 313 254 230 235 242 223 189 223 188 110 185 208 191 164 168 251 250 247 232 235 243 234 251 276 289 359 45
1 2 2 358 358 354 351 349 348 347 345 342 341 340 340 338 337 337 335 335 335 334 331 333 336 341 341 342 350 58 40 52 283 264 259 309 357 17 5 5 46 64 87 139 72 48 66 82 76 35 82 201 354 13 254 301 226 46 231 10 236 327 236 342 264 360 229 230 221 140 150 213 79 72 196 181 224 238 244 250 201 215 207 201 241 265 112 105
358 360 358 358 356 353 350 347 346 346 343 340 340 337 337 335 334 334 333 331 330 328 329 327 336 342 345 353 30 43 52 356 133 317 266 351 340 9 15 25 6 83 71 43 79 24 63 10 60 30 7 70 206 170 279 217 1 248 301 294 273 227 256 307 339 5 27 8 268 201 234 108 174 217 207 201 217 234 248 230 216 204 189 207 162 145 312 253
357 357 356 356 356 352 350 347 345 345 342 340 337 336 333 333 332 331 330 328 325 324 324 331 337 346 351 3 43 71 82 268 18 283 336 341 30 13 21 34 28 51 56 55 18 73 52 69 80 198 91 32 301 234 273 328 3 215 256 341 302 330 253 320 297 313 315 338 276 230 356 251 196 240 185 213 227 232 233 209 189 243 21 209 145 142 174 218
357 356 356 355 355 351 349 348 344 344 341 339 335 335 333 331 330 327 326 326 321 321 321 324 338 354 4 39 11 349 30 272 258 302 334 27 27 7 21 50 34 65 62 77 54 85 92 107 172 157 62 147 238 161 309 358 18 216 274 265 279 310 266 277 292 306 314 294 265 299 284 251 220 235 50 229 225 235 243 233 208 229 263 274 284 221 187 274
358 356 355 353 352 350 349 347 344 343 340 338 336 333 334 329 328 325 323 322 318 315 341 354 339 33 72 85 90 21 311 241 228 344 37 39 4 25 35 356 20 81 123 65 25 145 131 249 98 174 258 327 195 160 315 92 300 223 246 330 306 290 303 291 306 305 306 302 308 295 272 264 234 282 264 250 239 228 239 225 227 227 253 263 262 274 258 241
356 355 354 352 351 350 348 345 343 341 341 337 335 332 330 330 326 326 322 319 317 312 290 320 347 37 51 70 38 50 259 279 356 45 66 74 33 52 44 71 60 77 69 342 41 58 69 220 157 185 126 142 109 228 73 137 227 143 272 237 257 275 290 295 246 292 323 269 326 299 290 288 260 158 259 198 232 216 217 236 210 220 226 241 252 254 268 245
357 357 355 352 351 349 346 344 343 341 339 338 333 331 329 327 326 325 325 317 324 337 167 341 19 37 49 67 118 217 263 28 6 50 73 73 55 49 13 355 67 69 98 42 79 144 91 142 186 127 83 229 120 283 154 221 324 323 303 307 284 275 264 263 294 280 322 298 231 226 269 277 266 209 242 109 248 197 217 235 226 214 222 222 237 249 230 242
359 359 354 353 351 348 346 345 343 341 339 336 333 328 327 326 327 324 325 333 318 280 177 319 79 96 69 93 161 209 341 226 356 30 50 39 57 87 179 72 78 141 113 105 21 330 194 136 125 39 204 338 315 94 339 272 8 282 6 312 295 319 299 206 242 225 164 247 144 148 310 282 252 237 237 202 183 203 212 227 234 223 222 216 219 227 238 228
358 355 354 353 350 349 348 346 344 342 339 337 332 328 326 328 329 326 333 6 59 166 53 72 98 86 97 350 234 240 299 289 130 65 39 58 116 73 81 69 84 89 127 123 156 309 128 115 89 64 241 79 246 96 231 42 312 347 30 239 329 334 292 265 218 185 162 235 152 129 268 242 246 246 109 206 158 218 212 228 232 235 228 231 222 227 235 238
356 355 357 352 350 348 347 346 344 343 341 338 330 327 327 331 327 333 24 42 50 349 243 134 93 60 91 244 267 233 296 115 123 62 7 315 82 331 32 27 59 57 54 95 78 71 65 33 98 131 103 121 290 287 6 338 19 326 265 67 259 347 267 303 141 168 174 207 164 154 243 264 256 320 217 175 187 209 216 225 232 235 225 229 228 225 231 238
356 357 355 352 350 347 347 346 345 344 343 337 329 325 330 331 330 315 44 22 338 323 273 95 64 85 45 267 259 303 239 102 51 334 328 46 89 13 4 14 34 31 71 79 101 56 113 70 71 39 274 332 354 19 310 12 348 297 5 270 314 190 253 282 256 152 173 263 182 139 243 254 275 263 230 217 221 206 219 224 231 235 226 221 229 225 227 233
357 357 356 353 350 349 348 347 346 346 344 337 328 326 329 329 327 212 36 25 355 17 39 114 137 123 107 334 163 335 36 74 124 301 313 98 97 124 163 94 40 25 39 4 54 53 37 90 69 184 228 1 55 75 353 355 324 345 173 269 235 202 261 356 281 214 199 137 253 185 234 47 315 322 352 337 299 263 234 235 232 239 234 223 230 234 227 233
355 356 357 355 352 350 350 348 348 348 345 337 326 330 324 339 334 316 56 29 357 347 84 149 134 111 214 290 336 66 276 278 290 18 355 26 103 146 84 39 11 12 11 10 29 51 341 63 272 31 29 135 151 97 10 273 275 242 214 235 218 236 282 270 304 357 213 168 220 243 244 239 173 224 320 357 57 12 306 287 274 258 247 234 233 238 235 228
356 355 355 354 353 351 350 350 350 350 347 338 326 329 320 355 5 259 351 4 348 48 86 98 127 319 292 39 116 198 112 296 2 293 253 294 113 80 95 89 38 71 39 18 357 78 325 45 44 196 18 99 132 135 160 246 217 222 174 247 279 253 245 258 292 263 73 237 225 239 246 254 244 279 285 284 106 351 275 257 264 274 278 277 263 260 260 254
356 357 355 354 353 352 352 351 354 354 350 338 327 334 344 22 28 78 58 346 38 354 16 245 52 231 236 304 296 304 246 220 302 49 302 46 18 93 68 86 76 88 352 59 286 105 344 70 33 59 199 182 205 192 192 230 79 247 178 213 229 260 248 210 242 261 64 281 254 236 244 256 250 252 261 271 279 271 268 257 263 266 271 273 268 265 260 254
357 355 355 353 354 353 354 354 358 0 356 343 348 13 7 18 3 339 336 16 94 221 264 255 34 306 335 243 259 267 296 349 64 336 329 310 87 69 30 70 30 63 99 175 299 169 96 176 206 204 213 209 216 202 218 45 80 61 124 227 242 242 267 253 9 259 5 277 249 249 257 270 264 251 261 273 279 279 270 264 260 258 263 263 258 245 251 252
357 356 354 354 352 352 352 352 4 4 1 353 347 43 51 330 9 329 341 295 254 220 239 266 235 235 234 54 309 10 117 313 48 299 211 103 109 109 236 82 48 147 222 175 158 286 74 235 241 218 223 214 218 227 265 282 319 273 281 275 281 231 259 113 237 360 345 187 284 183 286 266 270 258 236 263 275 256 254 258 253 248 247 250 256 258 246 250
357 354 352 354 351 348 350 353 12 5 10 355 39 62 100 23 292 205 130 314 318 116 208 233 324 269 328 252 231 131 68 7 307 242 286 150 192 146 277 134 155 203 101 103 16 333 200 234 248 196 208 170 207 224 226 231 252 275 260 297 293 266 236 266 238 195 240 162 266 276 260 268 266 259 226 242 247 250 235 236 242 237 241 243 239 248 258 274
354 353 351 351 351 349 351 351 22 4 15 17 47 76 59 332 20 330 89 273 263 262 272 106 169 251 288 249 260 116 157 225 244 258 188 143 70 199 136 155 172 131 136 180 177 161 319 255 254 209 157 178 227 199 222 251 256 246 244 250 246 261 10 311 299 203 251 196 264 53 313 280 275 246 249 247 243 257 242 235 243 224 231 234 230 223 234 245
354 352 353 353 352 352 347 352 17 10 12 28 76 57 310 294 95 87 6 278 294 319 187 219 155 181 228 93 211 115 149 255 119 281 237 141 154 183 108 158 122 150 213 196 200 185 219 151 303 129 166 179 209 205 188 213 244 228 222 237 254 263 233 217 258 351 235 293 249 291 293 285 268 268 260 252 240 247 258 252 259 252 239 242 261 266 220 230
353 355 356 352 349 349 343 360 38 350 339 63 91 148 1 330 198 180 86 299 289 270 152 309 131 225 200 88 108 86 207 339 220 232 233 136 147 101 222 172 117 224 214 185 212 255 261 230 94 78 146 188 198 216 214 190 238 258 221 221 231 242 259 247 330 33 348 291 199 188 311 265 278 259 240 250 266 242 241 232 241 243 236 226 239 241 236 235
354 352 351 348 347 354 342 26 320 334 9 76 197 1 23 337 214 159 110 71 326 271 304 8 184 14 135 45 97 242 134 270 232 241 193 198 153 149 89 231 161 231 164 152 195 233 246 162 196 204 154 199 208 224 216 166 215 220 259 210 228 239 237 244 216 134 258 252 309 132 204 279 282 293 245 244 258 264 277 261 255 245 239 222 224 231 226 214
349 346 344 348 349 2 20 329 297 347 29 307 293 1 360 331 177 120 342 339 36 261 62 234 76 353 96 232 174 53 356 288 321 44 165 191 191 294 136 224 14 317 137 168 32 263 156 215 157 170 192 187 215 242 216 171 180 232 246 138 190 220 224 231 212 207 237 293 324 86 167 258 285 248 234 193 231 267 279 269 264 258 251 241 226 221 215 207
345 343 343 346 350 23 197 286 345 340 236 258 342 334 354 303 101 71 78 18 307 301 235 309 171 353 89 312 92 133 231 310 3 223 331 293 69 314 153 219 194 185 192 102 231 239 144 145 150 184 198 204 218 226 137 165 167 226 318 155 187 205 208 221 188 217 237 258 261 159 246 280 249 275 8 142 250 260 260 261 258 251 237 241 243 229 219 201
347 344 342 340 347 353 120 360 294 273 245 292 324 338 334 86 98 90 114 87 232 70 123 68 270 31 342 357 46 46 336 337 178 336 308 316 11 158 270 237 182 195 240 195 239 255 347 143 194 186 172 217 225 79 162 174 207 255 124 75 48 54 61 161 189 207 241 208 244 223 189 229 269 256 135 269 227 238 241 248 252 252 240 232 236 238 227 196
343 345 343 341 339 351 346 77 189 242 303 330 320 326 9 73 37 41 8 253 349 310 89 215 107 287 30 15 314 360 244 282 128 316 33 152 297 11 219 131 146 193 255 271 252 256 211 304 163 159 223 227 129 207 176 189 199 99 96 82 23 38 48 20 71 118 104 240 237 232 208 198 272 247 175 187 214 210 235 264 272 266 244 238 232 231 216 195
340 338 341 342 331 308 326 295 251 266 292 305 313 352 71 38 109 105 222 227 51 251 51 37 301 32 31 21 324 314 302 320 318 106 283 80 317 90 353 355 56 28 309 269 260 265 257 258 242 243 197 227 123 285 281 214 181 145 139 125 40 331 23 27 341 181 212 242 232 233 215 193 230 293 243 214 211 219 200 224 242 252 247 240 230 231 222 201
335 334 335 334 309 348 329 286 298 330 303 292 28 55 69 320 13 141 229 316 344 281 69 293 56 55 335 11 156 260 191 332 235 145 190 184 205 163 204 204 127 356 272 222 260 204 247 233 228 275 205 169 186 204 303 144 192 192 111 118 197 264 46 284 98 231 210 227 229 237 156 274 231 240 254 199 244 253 221 217 223 236 251 247 237 221 207 183
344 341 332 320 322 304 256 251 296 300 317 331 68 49 43 92 305 255 277 6 251 93 291 95 310 330 299 343 268 280 182 209 206 224 153 273 165 253 231 209 183 188 266 242 345 309 269 255 210 231 226 194 157 209 201 259 211 164 175 184 198 227 225 235 222 274 324 283 262 248 189 237 138 238 252 244 239 226 232 230 240 237 235 237 229 202 181 175
340 338 328 313 311 261 261 289 279 296 11 41 72 30 46 357 252 200 207 233 240 358 313 56 327 342 122 263 248 143 319 234 152 250 173 265 205 254 286 246 203 285 198 332 267 236 280 271 243 154 270 175 197 208 222 211 167 196 188 180 202 199 172 235 196 226 222 235 272 85 114 245 168 235 205 236 229 224 236 223 229 233 241 237 225 176 168 165
344 330 318 315 328 300 247 267 282 224 76 56 51 89 110 256 235 231 250 295 301 308 335 316 337 352 297 229 305 294 182 309 97 357 165 213 265 190 232 256 216 192 355 292 198 158 226 251 255 190 190 171 192 215 219 154 130 208 204 204 208 218 164 235 212 220 249 267 281 228 198 214 195 253 306 294 289 229 228 240 206 238 226 146 142 183 184 173
348 315 320 290 319 274 352 315 75 83 81 54 77 76 199 200 261 128 260 172 322 14 301 319 182 325 269 312 339 75 300 142 291 85 295 206 251 254 213 217 192 185 173 220 302 275 198 253 191 295 316 177 201 192 204 177 237 201 140 217 222 241 227 286 333 173 104 26 248 204 334 302 294 300 266 227 255 254 249 248 234 240 185 155 195 197 179 173
337 325 341 327 317 288 324 303 151 80 57 92 95 245 208 287 185 180 34 47 282 82 2 7 301 117 300 299 254 344 293 44 272 117 286 281 322 218 247 270 161 263 207 242 257 200 258 268 210 138 251 275 244 312 294 229 190 96 191 208 78 80 114 167 234 333 130 235 246 187 227 216 201 258 212 206 210 244 233 232 233 228 152 199 206 182 173 164
337 309 277 312 258 317 341 328 76 53 77 99 199 241 137 145 254 155 269 30 31 6 9 238 270 135 273 254 292 352 304 339 282 321 271 280 265 195 51 9 307 133 283 320 234 311 13 283 256 214 239 251 25 175 270 255 236 222 232 193 150 240 249 215 216 231 244 237 261 235 238 235 207 233 0 222 209 228 232 245 233 209 210 213 191 173 163 153
310 20 330 245 297 323 353 67 42 85 77 201 222 291 234 202 259 37 20 83 237 141 272 256 252 272 295 285 294 322 7 255 342 300 311 227 245 215 108 320 319 19 357 6 330 303 266 272 305 61 77 347 358 140 232 223 251 61 333 316 243 203 214 203 207 253 256 260 255 248 217 246 187 220 208 225 229 230 209 223 223 221 220 201 191 171 168 168
344 21 290 264 318 43 13 60 58 36 118 222 234 228 161 285 254 283 37 33 322 312 274 289 262 278 276 282 324 299 297 279 278 268 257 312 286 315 325 14 122 338 326 333 287 282 276 267 274 241 218 312 263 206 226 210 230 253 221 275 302 215 275 82 334 230 223 246 243 268 253 299 198 188 195 228 219 215 197 213 220 225 225 205 183 173 171 166
282 186 268 304 353 358 20 37 57 281 195 281 263 249 301 278 329 269 78 319 323 311 253 270 274 260 283 285 278 282 284 271 248 252 224 326 288 319 101 109 341 339 325 316 290 307 287 254 265 278 262 232 235 246 233 270 259 245 210 224 217 233 249 256 250 210 91 228 217 228 249 244 276 313 231 224 232 204 207 204 219 224 223 189 176 176 162 163
6 330 267 309 85 40 61 3 247 155 171 232 218 195 274 304 298 280 297 273 240 240 329 64 284 267 284 302 305 303 277 263 251 250 281 231 303 285 346 17 8 307 335 322 307 299 272 302 319 276 254 264 253 246 200 201 195 204 249 281 241 238 230 239 257 237 267 250 244 239 263 247 216 17 272 266 278 262 253 274 264 282 224 177 160 153 166 163
315 252 258 272 284 293 333 261 241 229 237 222 210 262 249 255 252 260 187 289 37 318 21 272 282 353 298 291 251 283 304 272 279 275 266 268 272 316 319 349 345 10 334 288 321 305 333 42 270 281 300 307 294 262 263 229 288 294 241 205 244 247 233 241 249 245 246 245 252 252 252 259 309 288 272 281 275 250 258 208 233 254 147 146 154 157 154 145
274 284 309 328 113 128 140 206 249 233 245 264 239 254 255 226 288 302 81 322 63 332 312 290 301 274 246 252 281 268 307 312 256 73 290 302 272 65 357 30 354 18 8 302 7 301 326 281 38 304 311 295 312 358 4 16 70 172 255 262 182 243 2 314 290 41 240 217 229 232 249 260 276 14 357 29 20 23 345 315 232 173 168 159 154 156 155 148
301 257 205 303 17 143 160 201 175 240 274 288 293 289 317 298 122 189 303 287 14 212 286 270 274 248 270 286 261 266 263 252 279 270 268 282 275 350 313 45 349 330 283 283 301 298 277 281 277 275 282 296 303 314 305 326 287 307 333 301 309 78 360 12 260 240 241 183 197 232 263 264 285 357 7 24 20 15 4 356 337 274 173 156 155 158 154 155
5 340 350 328 359 323 243 70 347 258 305 306 338 293 156 244 318 161 328 297 252 223 250 268 299 285 259 272 279 270 276 248 260 301 342 285 314 333 279 323 303 273 291 304 315 318 253 265 242 264 275 276 287 297 309 303 288 273 266 214 274 225 194 173 244 278 251 296 244 232 227 241 264 319 357 357 18 26 21 2 349 336 317 161 152 153 158 161
285 230 35 300 323 158 229 304 302 356 194 25 328 29 296 294 287 291 241 276 295 288 268 254 252 279 282 294 268 274 259 272 290 301 244 283 284 280 293 285 294 251 304 313 303 321 257 264 274 275 268 267 275 289 302 308 292 282 273 268 269 277 259 219 218 253 331 328 266 221 180 213 236 264 315 345 349 358 46 73 14 1 324 218 166 147 136 137
13 211 135 180 144 274 312 276 164 243 271 221 246 287 271 276 267 267 328 274 197 267 245 325 50 211 243 238 261 281 300 280 275 269 289 263 282 313 354 328 9 300 299 289 281 243 274 273 272 266 270 267 263 277 289 290 280 283 282 285 284 273 270 250 247 247 263 242 280 352 345 321 300 265 222 225 245 338 309 130 127 96 17 66 138 156 157 157
169 257 245 89 255 300 196 244 239 264 271 259 248 239 253 253 254 250 228 299 307 270 267 274 250 250 253 253 200 261 274 297 279 273 249 296 286 301 299 319 282 261 270 281 275 249 271 234 277 297 282 275 289 292 298 304 299 301 293 279 270 274 267 263 271 264 231 251 269 286 300 283 265 290 242 245 261 214 154 129 75 84 71 6 324 165 160 153
280 22 297 281 208 233 231 260 268 248 249 245 256 241 234 225 250 262 294 240 272 286 158 234 267 259 250 258 267 260 261 261 276 283 297 295 290 264 263 250 272 297 24 236 339 315 316 279 299 289 288 277 285 291 287 284 291 288 294 294 277 263 267 254 254 256 226 267 248 267 264 277 287 120 16 340 11 336 81 77 95 95 85 66 20 12 44 83
233 197 176 282 283 253 218 221 243 267 262 258 263 264 251 245 245 242 238 242 243 252 242 262 266 285 296 238 256 261 262 264 264 265 271 265 266 274 259 282 108 284 291 287 262 298 219 268 299 290 284 283 275 275 279 284 282 278 278 279 282 260 253 235 218 231 206 229 242 235 268 267 306 10 23 38 49 32 33 30 50 68 91 83 51 24 25 25
75 231 102 207 262 267 278 270 265 271 251 227 223 228 243 261 286 9 295 231 220 227 247 253 279 256 269 263 268 268 267 266 273 279 271 266 255 267 244 254 260 263 266 256 247 260 226 272 265 269 270 260 273 275 281 280 280 267 238 243 253 257 238 233 229 267 239 254 255 202 238 238 181 182 108 55 61 46 44 18 8 14 23 83 78 36 23 23